This is the latest recevied weather packets stored in our database for station/object K7PMV-13. If no packets are shown the sender has not sent any weather packets the latest 1 day(s).
| Time | Temp. | Humidity | Pressure | Rain* | Wind** | Luminosity | Snow |
|---|---|---|---|---|---|---|---|
| 1778006430 | 24.44° C | 39% | 1008.2 hPa | 0 mm | 1.79 m/s, 360° | 108 W/m² | - |
| 1778006116 | 23.89° C | 40% | 1008.1 hPa | 0 mm | 2.68 m/s, 360° | 916 W/m² | - |
| 1778005801 | 23.33° C | 41% | 1008.2 hPa | 0 mm | 1.79 m/s, 360° | 373 W/m² | - |
| 1778005485 | 23.33° C | 40% | 1008.3 hPa | 0 mm | 1.34 m/s, 360° | 362 W/m² | - |
| 1778005163 | 23.89° C | 39% | 1008.3 hPa | 0 mm | 1.79 m/s, 360° | 299 W/m² | - |
| 1778004849 | 23.89° C | 40% | 1008.3 hPa | 0 mm | 4.02 m/s, 360° | 954 W/m² | - |
| 1778004534 | 23.89° C | 42% | 1008.2 hPa | 0 mm | 0.89 m/s, 360° | 601 W/m² | - |
| 1778004220 | 23.33° C | 42% | 1008.3 hPa | 0 mm | 1.79 m/s, 360° | 842 W/m² | - |
| 1778003905 | 22.78° C | 43% | 1008.4 hPa | 0 mm | 1.79 m/s, 360° | 283 W/m² | - |
| 1778003586 | 23.33° C | 42% | 1008.3 hPa | 0 mm | 0.89 m/s, 360° | 786 W/m² | - |
| 1778003271 | 23.33° C | 43% | 1008.3 hPa | 0 mm | 1.79 m/s, 360° | 826 W/m² | - |
| 1778002956 | 23.33° C | 42% | 1008.4 hPa | 0 mm | 2.68 m/s, 360° | 854 W/m² | - |
| 1778002641 | 22.78° C | 44% | 1008.4 hPa | 0 mm | 1.34 m/s, 360° | 884 W/m² | - |
| 1778002324 | 22.78° C | 45% | 1008.4 hPa | 0 mm | 1.34 m/s, 360° | 930 W/m² | - |
| 1778001949 | 22.22° C | 46% | 1008.4 hPa | 0 mm | 1.34 m/s, 360° | 101 W/m² | - |
| 1778001629 | 22.22° C | 47% | 1008.4 hPa | 0 mm | 1.79 m/s, 360° | 102 W/m² | - |
| 1778001315 | 21.67° C | 48% | 1008.3 hPa | 0 mm | 2.68 m/s, 360° | 102 W/m² | - |
| 1778001000 | 21.67° C | 48% | 1008.3 hPa | 0 mm | 0.89 m/s, 360° | 353 W/m² | - |
| 1778000685 | 21.67° C | 48% | 1008.4 hPa | 0 mm | 1.34 m/s, 360° | 330 W/m² | - |
| 1778000366 | 21.67° C | 49% | 1008.4 hPa | 0 mm | 2.24 m/s, 360° | 348 W/m² | - |
| 1778000051 | 21.67° C | 49% | 1008.3 hPa | 0 mm | 0.45 m/s, 360° | 424 W/m² | - |
| 1777999736 | 21.67° C | 49% | 1008.3 hPa | 0 mm | 1.79 m/s, 360° | 401 W/m² | - |
| 1777999415 | 21.11° C | 50% | 1008.3 hPa | 0 mm | 1.34 m/s, 360° | 461 W/m² | - |
| 1777999100 | 21.11° C | 51% | 1008.4 hPa | 0 mm | 2.24 m/s, 360° | 617 W/m² | - |
| 1777998766 | 21.11° C | 51% | 1008.4 hPa | 0 mm | 1.34 m/s, 360° | 779 W/m² | - |
* Rain latest hour (hover to see other rain measurements)
** Current wind speed in m/s (hover to see current wind gust speed)